GMT,Max TemperatureF,Mean TemperatureF,Min TemperatureF,Max Dew PointF,MeanDew PointF,Min DewpointF,Max Humidity, Mean Humidity, Min Humidity, Max Sea Level PressureIn, Mean Sea Level PressureIn, Min Sea Level PressureIn, Max VisibilityMiles, Mean VisibilityMiles, Min VisibilityMiles, Max Wind SpeedMPH, Mean Wind SpeedMPH, Max Gust SpeedMPH,PrecipitationIn, CloudCover, Events, WindDirDegrees
2013-10-1,60,55,50,50,47,45,94,76,55,29.86,29.84,29.80,6,6,5,17,14,,0.00,4,Rain,76
2013-10-2,59,55,51,55,53,48,100,90,82,29.83,29.76,29.71,6,6,2,14,12,,0.00,7,Rain,76
2013-10-3,66,62,57,63,59,57,100,94,78,29.71,29.64,29.53,6,5,2,13,9,,0.00,6,Rain,91
2013-10-4,64,58,53,59,56,52,100,92,72,29.83,29.64,29.53,6,5,2,14,6,,0.00,7,Rain,268
2013-10-5,60,56,51,54,52,50,94,85,68,30.09,30.00,29.83,6,6,6,17,9,,0.00,5,,236
2013-10-6,62,58,55,59,57,54,100,91,77,30.09,30.06,30.04,6,6,4,20,12,,0.00,6,Rain,225
2013-10-7,66,62,59,61,58,57,100,89,77,30.06,30.03,29.98,6,6,4,24,14,,0.00,6,Rain,221
2013-10-8,59,55,51,57,52,46,100,87,77,30.18,30.09,29.98,6,6,4,17,12,,0.00,6,Rain,249
2013-10-9,51,48,44,48,41,30,100,76,57,30.18,30.06,29.98,6,6,4,22,13,39,0.00,4,Rain,285
2013-10-10,53,46,35,37,34,30,87,64,50,30.45,30.33,30.18,6,6,6,16,9,,0.00,2,,347
2013-10-11,51,40,30,43,37,28,100,81,67,30.51,30.48,30.42,6,6,6,13,6,,0.00,5,,47
2013-10-12,57,52,46,46,43,41,93,77,63,30.48,30.38,30.27,6,6,6,18,10,24,0.00,6,,54
2013-10-13,53,48,42,48,45,41,94,84,67,30.27,30.11,30.04,6,6,6,17,8,29,0.00,5,Rain,57
2013-10-14,55,50,44,52,47,43,94,89,77,30.04,29.99,29.92,6,6,4,13,6,,0.00,5,Rain,37
2013-10-15,55,48,41,48,45,41,100,87,72,29.98,29.95,29.92,6,6,0,17,5,,0.00,5,Fog,62
2013-10-16,51,40,30,48,42,30,100,94,82,29.98,29.76,29.59,6,5,0,14,5,,0.00,4,Fog-Rain,51
2013-10-17,55,50,44,54,49,45,100,98,93,29.98,29.79,29.65,6,4,0,13,4,,0.00,6,Fog-Rain,60
2013-10-18,53,50,48,52,49,46,100,96,87,29.98,29.88,29.65,6,6,3,14,9,,0.00,6,Rain,74
2013-10-19,57,55,53,57,53,50,100,95,88,29.62,29.49,29.44,6,5,2,13,8,,0.00,6,Rain,76
2013-10-20,57,54,50,55,52,50,100,94,88,29.47,29.41,29.39,6,6,3,12,6,21,0.00,6,Rain,88
2013-10-21,55,53,51,54,51,50,100,93,82,29.50,29.42,29.24,6,6,2,15,10,,0.00,6,Rain,126
2013-10-22,60,56,53,57,55,54,100,89,77,29.24,29.14,29.06,6,6,2,13,7,,0.00,6,Rain,170
2013-10-23,57,52,46,54,48,41,100,86,67,29.56,29.21,28.97,6,6,4,20,10,30,0.00,4,Rain,244
2013-10-24,55,50,44,48,44,41,94,82,62,29.89,29.79,29.59,6,6,6,17,10,,0.00,3,Rain,242
2013-10-25,60,54,48,55,50,43,100,91,82,29.83,29.47,29.30,6,6,3,17,11,,0.00,5,Rain,117
2013-10-26,55,50,46,54,48,45,100,86,72,29.42,29.31,29.12,6,6,4,21,11,31,0.00,6,Rain,214
2013-10-27,53,50,48,48,46,45,94,87,76,29.15,28.93,28.82,6,5,3,25,13,34,0.00,5,Rain,210
2013-10-28,51,48,44,46,45,41,100,88,82,29.36,29.05,28.88,6,6,6,16,11,,0.00,5,Rain,245
2013-10-29,51,45,39,45,41,37,100,85,71,29.89,29.63,29.36,6,6,6,16,10,,0.00,3,Rain,252
2013-10-30,53,45,37,52,43,37,100,89,71,29.92,29.78,29.56,6,6,2,23,8,32,0.00,4,Fog-Rain,213
2013-10-31,51,48,44,46,43,41,93,85,76,29.80,29.68,29.59,6,6,5,23,14,32,0.00,4,Rain,221